User: anonymous   Login
Location: Innsbruck
(47.2657°N, 11.3914°E)
Time: 12:07:45
(UTC+01:00)
Language:

BEESAT 2 - Orbit

View from above orbital plane
View from above orbital plane
View from above satellite
View from above satellite

Ground track
Ground track

The orbit data is extracted from the following two-line orbital elements,

1 39136U 13015G   21335.13063711  .00003215  00000-0  15918-3 0  9996
2 39136  64.8770  29.1513 0014018 247.0793 112.8855 15.19616228476236
Epoch (UTC): 01 December 2021 03:08:07
Eccentricity: 0.0014018
inclination: 64.8770°
perigee height: 497 km
apogee height: 516 km
right ascension of ascending node: 29.1513°
argument of perigee: 247.0793°
revolutions per day: 15.19616228
mean anomaly at epoch: 112.8855°
orbit number at epoch: 47623

The dashed part of the orbit path shows where the satellite is in the earth's shadow,  

DLR